Wind_Speed
24 25 25 25 26 27 29 29 28 29 29 30 30 30 30 31 31 31 32 32 32 32 32 32 32 32 33 32 32 32 32 32 32 31 31 31 31 30
26 27 27 27 28 28 29 29 29 29 29 29 30 30 30 31 31 32 32 32 32 33 33 33 33 33 33 33 33 33 33 33 32 32 32 32 32 31
28 27 27 28 29 29 29 29 29 29 30 30 30 30 31 31 31 32 32 33 33 33 34 34 34 34 34 34 34 34 33 32 33 33 32 32 31 31
27 27 27 28 28 28 28 29 29 30 30 30 30 31 32 32 31 32 32 33 34 34 34 35 34 34 34 34 34 34 34 33 33 32 32 32 31 31
27 27 27 27 28 28 28 29 29 29 29 31 31 31 32 32 32 32 32 33 33 34 34 35 35 34 34 34 34 34 34 33 33 33 33 33 32 32
26 26 26 27 27 27 28 29 29 30 30 31 31 31 32 32 32 32 32 32 33 33 34 34 34 35 34 34 34 34 34 34 34 34 34 33 33 33
24 24 25 26 26 27 27 28 29 30 31 32 32 31 31 32 32 32 32 32 32 32 33 33 33 34 34 34 34 34 34 34 35 35 35 34 34 34
24 25 26 26 26 27 28 28 29 30 30 31 31 31 31 31 31 31 30 30 31 32 33 33 33 32 33 33 33 33 33 34 35 36 36 36 36 36
25 25 25 26 26 27 27 28 28 29 30 30 30 31 30 30 30 30 30 30 31 31 32 32 32 32 33 33 33 34 34 35 36 37 37 37 38 38
26 26 26 26 26 27 27 27 28 28 29 29 29 30 30 30 31 31 31 31 31 31 32 31 32 32 32 33 33 33 34 34 35 36 36 37 37 38
24 25 25 26 27 27 27 27 28 28 28 28 28 28 29 30 31 32 32 32 31 31 31 32 32 32 33 32 33 33 33 34 34 35 35 36 37 38
24 24 25 25 26 26 27 27 27 27 28 28 28 29 30 31 32 33 33 32 32 32 32 32 32 32 32 32 33 33 33 33 34 35 35 36 37 37
24 25 25 26 27 27 27 27 27 27 27 28 29 29 30 31 32 32 33 33 33 32 32 33 32 32 33 32 32 32 32 32 32 33 33 34 34 36
25 26 26 26 26 27 27 27 27 27 27 28 28 29 30 31 31 32 32 33 33 33 33 33 33 33 34 34 33 33 33 33 32 32 31 32 32 33
26 26 26 26 26 26 27 27 28 28 28 28 28 28 29 31 31 32 32 33 33 33 33 33 33 33 34 33 33 33 33 33 33 32 32 31 31 32
26 26 26 26 26 26 27 27 28 28 28 28 29 29 30 31 31 31 32 33 33 33 33 33 33 33 33 33 33 33 33 33 32 32 31 31 31 31
26 26 26 26 27 27 27 28 28 28 29 29 29 30 31 31 31 30 31 32 32 33 33 33 33 33 32 32 32 33 33 32 31 31 30 30 29 29
26 26 27 27 28 28 29 29 28 29 29 29 30 30 30 30 30 31 31 31 31 32 32 32 32 32 32 32 31 31 31 32 31 30 29 29 28 28
27 27 27 27 28 29 29 29 28 29 29 29 29 29 30 30 30 30 31 31 31 31 31 31 31 30 30 31 31 31 30 30 30 30 30 29 28 27
26 26 27 28 28 28 28 28 27 27 27 27 27 28 29 29 29 29 29 30 30 30 30 29 29 29 28 28 29 30 31 30 29 29 29 27 27 27
26 26 27 27 28 27 27 26 26 25 26 26 26 27 27 27 27 27 27 28 28 29 28 27 27 27 27 28 28 29 29 29 28 28 27 27 26 26
26 27 27 27 27 26 26 25 25 25 24 24 24 24 24 24 25 25 26 26 26 26 26 26 26 26 26 26 27 27 28 28 28 28 27 26 26 26
25 26 26 26 26 26 25 25 24 24 24 23 23 23 24 24 24 25 25 25 25 25 25 25 25 24 24 24 24 25 25 26 26 26 26 26 26 26
Wind_Direction
275 273 272 271 272 271 269 268 268 266 265 265 264 263 263 261 259 259 260 261 260 259 259 260 261 261 261 260 262 261 259 260 260 260 259 259 259 259
276 276 274 273 273 273 272 269 269 268 266 265 264 263 262 261 261 260 260 261 261 261 261 261 262 260 260 260 260 260 260 259 259 259 258 257 257 257
276 274 273 272 273 272 272 270 270 269 268 265 263 263 262 262 261 261 261 261 262 262 262 262 261 260 259 260 260 259 259 258 258 258 259 258 257 257
277 274 273 272 272 273 271 270 270 270 268 266 264 264 263 262 260 261 261 261 261 261 261 261 260 260 260 261 261 260 259 258 258 259 260 259 258 259
277 275 274 274 274 273 271 270 270 270 269 268 266 266 264 262 261 262 262 262 262 262 262 261 260 261 260 260 262 260 258 257 257 257 257 257 258 258
278 277 277 276 274 272 272 270 269 269 269 268 268 267 267 265 264 263 263 264 263 262 262 262 261 261 261 261 260 259 258 258 257 256 256 256 258 258
281 279 278 277 276 274 274 272 271 270 270 269 267 267 267 266 266 264 264 264 263 261 261 262 263 262 261 260 259 259 259 258 258 257 256 256 258 259
282 280 278 277 277 275 275 274 272 271 270 268 267 266 265 265 265 266 266 265 264 261 260 261 262 262 261 261 260 259 259 259 259 257 257 258 259 260
282 280 278 278 278 277 276 276 274 272 270 268 267 266 265 265 265 265 266 266 267 265 263 261 261 263 263 262 261 261 261 261 260 259 257 258 259 260
281 280 279 279 278 277 277 278 276 273 271 269 267 266 265 264 264 265 265 266 266 265 264 263 262 264 265 265 263 262 262 262 263 262 260 259 260 260
280 280 279 279 279 279 278 278 277 273 272 271 270 268 266 265 265 265 266 266 267 265 263 264 264 265 265 266 265 264 264 263 263 263 263 263 262 261
283 282 282 280 280 280 279 278 276 274 274 275 273 270 268 267 266 266 267 267 268 266 264 265 265 265 265 266 266 265 265 266 265 265 265 265 263 262
284 284 284 283 281 280 279 278 276 275 275 275 274 272 270 269 268 267 266 267 268 267 266 266 265 265 265 265 265 265 264 265 266 265 266 265 265 263
285 285 284 284 283 281 278 277 276 276 276 276 275 273 273 271 269 269 268 268 268 267 266 266 266 265 265 265 265 265 265 265 265 266 265 265 265 265
286 286 285 284 284 282 279 277 277 277 277 277 276 275 274 274 272 270 268 268 268 267 266 266 266 265 265 266 265 265 265 265 265 266 265 265 265 264
286 286 287 286 285 284 283 282 280 278 279 278 277 276 275 274 274 272 270 269 269 267 267 266 266 267 265 265 264 263 264 265 265 266 265 265 264 263
286 287 287 286 285 286 286 285 283 281 280 279 278 277 276 274 274 273 271 270 269 269 268 267 266 265 264 265 263 261 262 263 264 265 265 264 263 262
287 288 287 287 287 287 287 286 284 282 281 280 280 278 276 274 273 273 272 272 271 269 268 266 266 265 264 263 262 261 260 261 262 263 263 263 262 261
288 290 290 289 289 288 288 287 285 283 281 280 279 278 277 276 275 273 272 272 271 269 268 267 266 265 264 263 261 260 259 260 261 262 262 261 260 259
288 289 291 290 290 289 289 288 287 284 283 282 281 280 280 277 275 274 273 272 271 270 269 268 268 266 265 263 260 260 259 260 260 260 260 259 258 256
288 290 291 291 290 290 290 289 288 287 286 284 282 282 280 277 276 276 275 274 271 269 268 268 269 268 265 263 262 261 261 261 260 258 257 258 257 255
288 290 291 291 291 290 290 290 289 289 287 286 284 283 282 279 278 277 275 274 272 270 268 268 268 268 266 263 262 260 258 258 258 257 257 257 257 254
289 290 290 291 290 289 288 289 288 288 286 285 284 282 282 281 279 276 276 275 273 269 267 267 267 267 265 263 261 259 257 257 256 256 255 254 254 254
Height
5794 5793 5793 5792 5792 5791 5791 5791 5791 5791 5791 5791 5791 5791 5791 5792 5792 5794 5795 5796 5797 5798 5799 5799 5800 5800 5801 5802 5803 5803 5804 5804 5805 5806 5807 5808 5808 5809
5786 5785 5785 5785 5784 5783 5783 5782 5782 5782 5782 5783 5783 5783 5783 5783 5784 5785 5786 5787 5788 5789 5789 5790 5791 5791 5792 5792 5793 5794 5795 5795 5796 5797 5798 5799 5800 5801
5777 5777 5776 5776 5776 5775 5774 5774 5774 5774 5774 5774 5774 5774 5774 5775 5775 5776 5776 5777 5778 5779 5780 5781 5781 5782 5783 5783 5784 5784 5785 5786 5787 5788 5789 5790 5791 5793
5768 5768 5768 5767 5767 5766 5766 5765 5765 5765 5765 5765 5765 5765 5765 5765 5766 5766 5767 5767 5768 5769 5770 5771 5772 5772 5773 5773 5774 5775 5775 5776 5778 5779 5780 5782 5783 5784
5760 5759 5758 5758 5758 5757 5757 5756 5756 5756 5756 5756 5756 5756 5756 5756 5756 5757 5757 5758 5758 5759 5760 5761 5761 5762 5763 5763 5764 5765 5766 5767 5769 5770 5771 5773 5774 5775
5752 5750 5750 5749 5749 5749 5748 5747 5747 5747 5747 5747 5747 5747 5747 5747 5747 5747 5748 5748 5748 5749 5750 5750 5751 5752 5753 5753 5755 5755 5757 5758 5759 5761 5762 5764 5765 5767
5744 5743 5742 5741 5741 5740 5740 5739 5739 5738 5738 5738 5738 5738 5738 5737 5738 5738 5738 5738 5739 5739 5740 5740 5741 5742 5743 5743 5745 5746 5747 5749 5750 5751 5753 5754 5756 5757
5736 5735 5734 5733 5733 5732 5731 5730 5730 5730 5729 5729 5728 5728 5728 5728 5729 5729 5729 5729 5730 5731 5730 5731 5731 5732 5733 5734 5735 5736 5737 5739 5740 5741 5743 5744 5746 5747
5729 5728 5726 5725 5724 5724 5723 5722 5721 5720 5720 5720 5719 5719 5719 5720 5720 5720 5720 5720 5720 5720 5720 5721 5722 5722 5723 5724 5725 5726 5727 5728 5730 5731 5732 5733 5735 5736
5722 5720 5718 5717 5716 5715 5714 5713 5712 5711 5711 5710 5710 5710 5710 5710 5711 5711 5710 5711 5711 5711 5711 5712 5712 5713 5713 5714 5715 5716 5717 5718 5719 5720 5721 5722 5723 5725
5713 5712 5710 5709 5708 5707 5706 5704 5703 5702 5702 5702 5701 5701 5701 5701 5701 5701 5701 5701 5702 5702 5702 5702 5703 5703 5704 5704 5705 5706 5707 5707 5708 5709 5710 5711 5712 5713
5706 5704 5703 5701 5700 5698 5697 5696 5694 5694 5693 5693 5692 5692 5692 5692 5692 5692 5691 5692 5692 5692 5693 5693 5693 5694 5694 5695 5695 5695 5696 5697 5698 5698 5699 5699 5700 5701
5698 5696 5695 5693 5692 5690 5688 5687 5686 5685 5684 5684 5683 5683 5682 5682 5682 5682 5682 5682 5682 5683 5683 5683 5683 5684 5684 5685 5685 5686 5686 5687 5687 5688 5688 5688 5689 5689
5690 5688 5687 5685 5683 5682 5680 5679 5678 5677 5676 5675 5675 5674 5673 5673 5673 5672 5672 5672 5672 5673 5673 5673 5673 5674 5674 5675 5676 5676 5676 5677 5677 5678 5678 5678 5678 5679
5682 5681 5679 5677 5675 5673 5672 5671 5669 5668 5667 5666 5666 5665 5664 5664 5663 5663 5662 5662 5662 5663 5663 5663 5664 5664 5664 5665 5665 5666 5666 5667 5667 5668 5668 5669 5669 5670
5674 5673 5671 5669 5667 5665 5664 5662 5661 5659 5658 5657 5656 5656 5655 5654 5653 5653 5653 5653 5653 5653 5653 5653 5654 5654 5654 5654 5655 5656 5656 5657 5658 5658 5658 5659 5659 5660
5666 5665 5663 5661 5659 5657 5655 5653 5652 5651 5649 5648 5647 5646 5645 5645 5644 5643 5643 5642 5643 5643 5643 5643 5643 5643 5644 5644 5645 5646 5647 5647 5648 5649 5649 5649 5650 5651
5658 5657 5654 5652 5650 5648 5646 5645 5643 5642 5640 5639 5638 5636 5636 5635 5634 5634 5633 5633 5633 5633 5633 5633 5632 5633 5634 5634 5635 5636 5637 5638 5639 5639 5640 5641 5642 5643
5650 5648 5646 5643 5641 5639 5637 5636 5634 5633 5631 5630 5629 5627 5626 5625 5625 5624 5623 5623 5623 5623 5623 5623 5623 5623 5624 5624 5625 5626 5627 5628 5629 5630 5631 5632 5633 5635
5641 5639 5637 5635 5633 5631 5629 5627 5625 5624 5622 5621 5620 5618 5617 5616 5615 5615 5614 5614 5613 5613 5613 5613 5613 5613 5614 5615 5616 5616 5617 5619 5620 5621 5622 5623 5625 5626
5633 5631 5629 5627 5625 5622 5621 5619 5617 5615 5614 5612 5611 5610 5608 5607 5606 5606 5605 5604 5604 5604 5604 5604 5604 5604 5604 5605 5606 5607 5608 5610 5611 5612 5613 5615 5616 5618
5625 5623 5621 5619 5617 5614 5613 5611 5609 5607 5606 5604 5603 5601 5600 5599 5598 5597 5596 5596 5595 5595 5595 5595 5595 5595 5596 5596 5597 5599 5600 5601 5602 5603 5605 5607 5608 5610
5617 5615 5613 5611 5609 5607 5605 5603 5601 5600 5598 5597 5595 5594 5592 5591 5590 5589 5588 5587 5587 5586 5586 5587 5587 5587 5588 5588 5589 5590 5591 5593 5594 5595 5597 5598 5600 5602